EW5299 Weather Reports


time (UTC)temp
C
wind
direction
speed
KPH
gust
KPH
rain 1hr
cm
rain 24hr
cm
rain mn
cm
humidity
%
barometer
mb
20260504044529 7 167 1.6 4.8 0.00 0.00 0.00 72 1015.2
20260504043037 7 115 0.0 0.0 0.00 0.00 0.00 72 1015.1
20260504041525 7 115 0.0 0.0 0.00 0.00 0.00 73 1015.2
20260504040025 7 67 0.0 0.0 0.00 0.00 0.00 72 1015.1
20260504034520 7 67 0.0 0.0 0.00 0.00 0.00 72 1015.1
20260504033020 7 67 0.0 0.0 0.00 0.00 0.00 73 1015.1
20260504031519 6 67 0.0 1.6 0.00 0.00 0.00 72 1015.2
20260504030025 6 67 0.0 1.6 0.00 0.00 0.00 72 1015.0
20260504024519 6 67 0.0 3.2 0.00 0.00 0.00 73 1015.1
20260504023018 6 67 1.6 4.8 0.00 0.00 0.00 73 1015.1
20260504021517 6 59 0.0 3.2 0.00 0.00 0.00 73 1015.0
20260504020017 6 59 0.0 4.8 0.00 0.00 0.00 73 1014.9
20260504014524 7 59 1.6 4.8 0.00 0.00 0.00 71 1014.8
20260504013031 7 59 1.6 4.8 0.00 0.00 0.00 71 1014.7
20260504011517 8 59 1.6 4.8 0.00 0.00 0.00 68 1014.5
20260504010019 8 17 1.6 4.8 0.00 0.00 0.00 66 1014.5
20260504004517 9 17 0.0 0.0 0.00 0.00 0.00 61 1014.4
20260504003016 10 17 0.0 0.0 0.00 0.00 0.00 61 1014.2
20260504001514 11 17 1.6 3.2 0.00 0.00 0.00 56 1014.1
20260504000013 12 16 1.6 3.2 0.00 0.00 0.00 53 1014.1
20260503234513 13 5 1.6 3.2 0.00 0.00 0.00 46 1013.9
20260503233019 15 5 1.6 4.8 0.00 0.00 0.00 44 1013.9
20260503231515 16 5 1.6 4.8 0.00 0.00 0.00 44 1013.8
20260503230011 17 355 1.6 4.8 0.00 0.00 0.00 33 1013.7
20260503224510 17 336 3.2 4.8 0.00 0.00 0.00 34 1013.7
20260503223009 17 327 0.0 3.2 0.00 0.00 0.00 30 1013.6
20260503221510 17 267 3.2 11.3 0.00 0.00 0.00 30 1013.8
20260503220008 17 342 6.4 14.5 0.00 0.00 0.00 29 1013.9
20260503214506 17 315 4.8 12.9 0.00 0.00 0.00 30 1013.8
20260503213007 17 360 8.0 16.1 0.00 0.00 0.00 30 1013.9
20260503211504 17 355 3.2 17.7 0.00 0.00 0.00 33 1014.0
20260503210003 17 298 9.7 17.7 0.00 0.00 0.00 33 1014.2
20260503204602 17 347 9.7 19.3 0.00 0.00 0.00 32 1014.3
20260503203114 17 346 8.0 22.5 0.00 0.00 0.00 33 1014.3
20260503201600 16 9 8.0 19.3 0.00 0.00 0.00 34 1014.5
20260503200056 16 327 4.8 20.9 0.00 0.00 0.00 34 1014.8
20260503194557 16 61 8.0 22.5 0.00 0.00 0.00 35 1014.9
20260503193055 16 22 11.3 24.1 0.00 0.00 0.00 34 1015.3
20260503191554 16 50 8.0 16.1 0.00 0.00 0.00 37 1015.4
20260503190101 16 15 9.7 20.9 0.00 0.00 0.00 35 1015.7
20260503184548 15 9 6.4 24.1 0.00 0.00 0.00 35 1016.1
20260503183049 15 22 16.1 29.0 0.00 0.00 0.00 35 1016.1
20260503181554 15 294 14.5 25.7 0.00 0.00 0.00 38 1016.1
20260503180046 14 281 8.0 25.7 0.00 0.00 0.00 36 1016.3
20260503174540 14 30 12.9 24.1 0.00 0.00 0.00 37 1016.3
20260503173038 14 355 12.9 27.4 0.00 0.00 0.00 39 1016.5
20260503171536 13 23 3.2 27.4 0.00 0.00 0.00 38 1016.6
20260503081559 5 57 6.4 14.5 0.00 0.00 0.00 68 1014.8
20260503071547 5 113 0.0 4.8 0.00 0.00 0.00 74 1014.5
20260503054550 7 69 0.0 3.2 0.00 0.00 0.00 69 1014.0
20260503053036 7 69 0.0 3.2 0.00 0.00 0.00 68 1013.9